sat.trackr.live / text

‹ back to catalog

STARLINK-32577

NORAD 62044 · 2024-216N

PAYLOAD ACTIVE UNKNOWN

§ Identity

Operator
Country
US
Launch date
2024-11-21
Launch site
AFETR
Launch vehicle
Mass (kg)
RCS (m²)

Purposes: comms

External: N2YO · Heavens-Above · Gunter

§ Orbital elements

Epoch: 2026-09-21T15:39:56.322144Z

Period
94.27 min
Inclination
42.9998°
Eccentricity
0.0001287
Mean motion
15.27595085 rev/d
Perigee alt
482.1 km
Apogee alt
483.9 km
Semi-major
6,861.1 km
B*
2.4813e-4
RAAN
236.7227°
Arg perigee
269.6812°
Mean anomaly
90.3893°
Rev number
10,377

§ Raw data

STARLINK-325771 62044U 24216N   26264.65273521  .00006575  00000+0  24813-3 0  99952 62044  42.9998 236.7227 0001287 269.6812  90.3893 15.27595085103777

JSON: /api/v1/satellites/62044 · /tle

For live sub-satellite position, see the globe view (requires WebGL).

§ Visibility from observer

Set your observer location to see the next 7 days of passes ≥ 10°. The values pass through the URL so the page stays shareable.

No JS? Fill the form by hand. The geolocation button needs JavaScript.